sat.trackr.live / text

‹ back to catalog

STARLINK-32440

NORAD 61714 · 2024-196H

PAYLOAD ACTIVE UNKNOWN

§ Identity

Operator
Country
US
Launch date
2024-10-30
Launch site
AFETR
Launch vehicle
Mass (kg)
RCS (m²)

Purposes: comms

External: N2YO · Heavens-Above · Gunter

§ Orbital elements

Epoch: 2026-05-25T03:45:20.533824Z

Period
94.11 min
Inclination
53.1601°
Eccentricity
0.0001319
Mean motion
15.30191738 rev/d
Perigee alt
474.3 km
Apogee alt
476.1 km
Semi-major
6,853.4 km
B*
2.6189e-5
RAAN
106.1826°
Arg perigee
86.3704°
Mean anomaly
273.7448°
Rev number
8,886

§ Raw data

STARLINK-324401 61714U 24196H   26145.15648766  .00000416  00000+0  26189-4 0  99922 61714  53.1601 106.1826 0001319  86.3704 273.7448 15.30191738 88866

JSON: /api/v1/satellites/61714 · /tle

For live sub-satellite position, see the globe view (requires WebGL).

§ Visibility from observer

Set your observer location to see the next 7 days of passes ≥ 10°. The values pass through the URL so the page stays shareable.

No JS? Fill the form by hand. The geolocation button needs JavaScript.